Time,TemperatureF,DewpointF,PressureIn,WindDirection,WindDirectionDegrees,WindSpeedMPH,WindSpeedGustMPH,Humidity,HourlyPrecipIn,Conditions,Clouds,dailyrainin,SolarRadiationWatts/m^2,SoftwareType,DateUTC
2015-04-19 00:00:00,58.6,53.8,29.95,North,353,2.0,-999.0,84,0.00,,,0.00,0,WeatherHawk,2015-04-19 07:00:00,
2015-04-19 00:05:00,58.6,54.1,29.95,North,353,2.0,-999.0,85,0.00,,,0.00,0,WeatherHawk,2015-04-19 07:05:00,
2015-04-19 00:10:00,58.6,54.1,29.95,NNW,343,3.0,-999.0,85,0.00,,,0.00,1,WeatherHawk,2015-04-19 07:10:00,
2015-04-19 00:15:00,58.6,54.1,29.95,NNW,345,3.0,-999.0,85,0.00,,,0.00,0,WeatherHawk,2015-04-19 07:15:00,
2015-04-19 00:20:00,58.6,54.5,29.95,North,350,2.0,-999.0,86,0.00,,,0.00,2,WeatherHawk,2015-04-19 07:20:00,
2015-04-19 00:25:00,58.6,54.5,29.95,NNW,336,2.0,-999.0,86,0.00,,,0.00,0,WeatherHawk,2015-04-19 07:25:00,
2015-04-19 00:30:00,58.5,54.3,29.95,North,351,2.0,-999.0,86,0.00,,,0.00,0,WeatherHawk,2015-04-19 07:30:00,
2015-04-19 00:35:00,58.3,54.1,29.95,NNW,340,2.0,-999.0,86,0.00,,,0.00,1,WeatherHawk,2015-04-19 07:35:00,
2015-04-19 00:40:00,58.3,54.1,29.95,North,353,2.0,-999.0,86,0.00,,,0.00,0,WeatherHawk,2015-04-19 07:40:00,
2015-04-19 00:45:00,57.9,53.8,29.95,North,355,2.0,-999.0,86,0.00,,,0.00,0,WeatherHawk,2015-04-19 07:45:00,
2015-04-19 00:50:00,57.7,53.3,29.95,NNW,348,3.0,-999.0,85,0.00,,,0.00,0,WeatherHawk,2015-04-19 07:50:00,
2015-04-19 00:55:00,57.9,53.8,29.95,NNW,344,2.0,-999.0,86,0.00,,,0.00,0,WeatherHawk,2015-04-19 07:55:00,
2015-04-19 01:00:00,58.1,54.2,29.95,NNW,331,2.0,-999.0,87,0.00,,,0.00,0,WeatherHawk,2015-04-19 08:00:00,
2015-04-19 01:05:00,58.3,54.4,29.95,NNW,336,2.0,-999.0,87,0.00,,,0.00,0,WeatherHawk,2015-04-19 08:05:00,
2015-04-19 01:10:00,58.3,54.4,29.95,NNW,331,3.0,-999.0,87,0.00,,,0.00,0,WeatherHawk,2015-04-19 08:10:00,
2015-04-19 01:15:00,58.1,54.2,29.95,NNW,347,3.0,-999.0,87,0.00,,,0.00,1,WeatherHawk,2015-04-19 08:15:00,
2015-04-19 01:20:00,57.7,53.9,29.95,North,352,3.0,-999.0,87,0.00,,,0.00,0,WeatherHawk,2015-04-19 08:20:00,
2015-04-19 01:25:00,57.4,53.5,29.95,NNW,343,3.0,-999.0,87,0.00,,,0.00,1,WeatherHawk,2015-04-19 08:25:00,
2015-04-19 01:30:00,57.7,53.9,29.94,NNW,342,3.0,-999.0,87,0.00,,,0.00,0,WeatherHawk,2015-04-19 08:30:00,
2015-04-19 01:35:00,57.0,52.9,29.94,North,349,4.0,-999.0,86,0.00,,,0.00,0,WeatherHawk,2015-04-19 08:35:00,
2015-04-19 01:40:00,56.8,53.0,29.94,NNW,341,4.0,-999.0,87,0.00,,,0.00,1,WeatherHawk,2015-04-19 08:40:00,
2015-04-19 01:45:00,57.4,53.5,29.94,NNW,338,2.0,-999.0,87,0.00,,,0.00,0,WeatherHawk,2015-04-19 08:45:00,
2015-04-19 01:50:00,57.6,53.7,29.94,NNW,336,3.0,-999.0,87,0.00,,,0.00,0,WeatherHawk,2015-04-19 08:50:00,
2015-04-19 01:55:00,57.4,53.5,29.94,NNW,344,3.0,-999.0,87,0.00,,,0.00,0,WeatherHawk,2015-04-19 08:55:00,
2015-04-19 02:00:00,57.2,53.4,29.94,North,349,3.0,-999.0,87,0.00,,,0.00,2,WeatherHawk,2015-04-19 09:00:00,
2015-04-19 02:05:00,57.2,53.4,29.94,NNW,344,3.0,-999.0,87,0.00,,,0.00,0,WeatherHawk,2015-04-19 09:05:00,
2015-04-19 02:10:00,57.2,53.4,29.93,NNW,335,3.0,-999.0,87,0.00,,,0.00,0,WeatherHawk,2015-04-19 09:10:00,
2015-04-19 02:15:00,57.4,53.9,29.93,NW,324,2.0,-999.0,88,0.00,,,0.00,1,WeatherHawk,2015-04-19 09:15:00,
2015-04-19 02:20:00,57.4,53.9,29.93,NNW,342,2.0,-999.0,88,0.00,,,0.00,3,WeatherHawk,2015-04-19 09:20:00,
2015-04-19 02:25:00,57.4,53.9,29.93,NNW,336,2.0,-999.0,88,0.00,,,0.00,0,WeatherHawk,2015-04-19 09:25:00,
2015-04-19 02:30:00,57.2,53.4,29.93,NNW,343,2.0,-999.0,87,0.00,,,0.00,1,WeatherHawk,2015-04-19 09:30:00,
2015-04-19 02:35:00,57.0,53.2,29.93,NW,326,2.0,-999.0,87,0.00,,,0.00,0,WeatherHawk,2015-04-19 09:35:00,
2015-04-19 02:40:00,56.8,53.3,29.93,North,350,2.0,-999.0,88,0.00,,,0.00,0,WeatherHawk,2015-04-19 09:40:00,
2015-04-19 02:45:00,55.9,51.8,29.93,North,358,4.0,-999.0,86,0.00,,,0.00,1,WeatherHawk,2015-04-19 09:45:00,
2015-04-19 02:50:00,56.7,53.1,29.93,NW,324,3.0,-999.0,88,0.00,,,0.00,1,WeatherHawk,2015-04-19 09:50:00,
2015-04-19 02:55:00,56.7,53.1,29.93,North,5,2.0,-999.0,88,0.00,,,0.00,0,WeatherHawk,2015-04-19 09:55:00,
2015-04-19 03:05:00,56.8,53.3,29.93,NW,326,2.0,-999.0,88,0.00,,,0.00,0,WeatherHawk,2015-04-19 10:05:00,
2015-04-19 03:10:00,56.7,53.1,29.93,NNW,348,3.0,-999.0,88,0.00,,,0.00,0,WeatherHawk,2015-04-19 10:10:00,
2015-04-19 03:15:00,56.5,53.0,29.93,North,349,3.0,-999.0,88,0.00,,,0.00,1,WeatherHawk,2015-04-19 10:15:00,
2015-04-19 03:20:00,56.5,53.0,29.93,North,355,3.0,-999.0,88,0.00,,,0.00,0,WeatherHawk,2015-04-19 10:20:00,
2015-04-19 03:25:00,55.9,52.4,29.93,North,352,4.0,-999.0,88,0.00,,,0.00,0,WeatherHawk,2015-04-19 10:25:00,
2015-04-19 03:30:00,56.3,53.1,29.93,NNW,342,3.0,-999.0,89,0.00,,,0.00,1,WeatherHawk,2015-04-19 10:30:00,
2015-04-19 03:35:00,56.7,53.5,29.93,NNW,347,3.0,-999.0,89,0.00,,,0.00,2,WeatherHawk,2015-04-19 10:35:00,
2015-04-19 03:45:00,55.8,52.3,29.93,North,351,4.0,-999.0,88,0.00,,,0.00,0,WeatherHawk,2015-04-19 10:45:00,
2015-04-19 03:50:00,55.2,51.7,29.93,North,354,3.0,-999.0,88,0.00,,,0.00,0,WeatherHawk,2015-04-19 10:50:00,
2015-04-19 03:55:00,56.1,52.9,29.93,North,355,2.0,-999.0,89,0.00,,,0.00,0,WeatherHawk,2015-04-19 10:55:00,
2015-04-19 04:00:00,56.5,53.3,29.93,NW,322,1.0,-999.0,89,0.00,,,0.00,0,WeatherHawk,2015-04-19 11:00:00,
2015-04-19 04:05:00,56.7,53.5,29.93,WSW,254,0.0,-999.0,89,0.00,,,0.00,0,WeatherHawk,2015-04-19 11:05:00,
2015-04-19 04:10:00,56.7,53.5,29.92,NW,311,0.0,-999.0,89,0.00,,,0.00,1,WeatherHawk,2015-04-19 11:10:00,
2015-04-19 04:15:00,56.8,53.6,29.92,WSW,243,1.0,-999.0,89,0.00,,,0.00,1,WeatherHawk,2015-04-19 11:15:00,
2015-04-19 04:20:00,56.8,53.6,29.93,WSW,242,0.0,-999.0,89,0.00,,,0.00,0,WeatherHawk,2015-04-19 11:20:00,
2015-04-19 04:25:00,57.0,53.8,29.92,SSW,209,1.0,-999.0,89,0.00,,,0.00,0,WeatherHawk,2015-04-19 11:25:00,
2015-04-19 04:30:00,57.0,53.5,29.93,ESE,105,1.0,-999.0,88,0.00,,,0.00,0,WeatherHawk,2015-04-19 11:30:00,
2015-04-19 04:35:00,57.2,53.7,29.93,ESE,117,2.0,-999.0,88,0.00,,,0.00,0,WeatherHawk,2015-04-19 11:35:00,
2015-04-19 04:40:00,57.4,53.9,29.93,SSE,153,1.0,-999.0,88,0.00,,,0.00,0,WeatherHawk,2015-04-19 11:40:00,
2015-04-19 04:45:00,56.8,53.0,29.93,SSE,151,1.0,-999.0,87,0.00,,,0.00,0,WeatherHawk,2015-04-19 11:45:00,
2015-04-19 04:50:00,56.7,52.8,29.92,SSE,148,1.0,-999.0,87,0.00,,,0.00,0,WeatherHawk,2015-04-19 11:50:00,
2015-04-19 04:55:00,56.7,52.5,29.92,WSW,244,0.0,-999.0,86,0.00,,,0.00,0,WeatherHawk,2015-04-19 11:55:00,
2015-04-19 05:00:00,56.7,52.5,29.92,ESE,109,2.0,-999.0,86,0.00,,,0.00,0,WeatherHawk,2015-04-19 12:00:00,
2015-04-19 05:05:00,56.8,53.0,29.92,ESE,103,2.0,-999.0,87,0.00,,,0.00,0,WeatherHawk,2015-04-19 12:05:00,
2015-04-19 05:10:00,57.2,53.4,29.92,South,191,0.0,-999.0,87,0.00,,,0.00,0,WeatherHawk,2015-04-19 12:10:00,
2015-04-19 05:15:00,57.2,53.4,29.92,NNE,14,1.0,-999.0,87,0.00,,,0.00,0,WeatherHawk,2015-04-19 12:15:00,
2015-04-19 05:20:00,57.0,53.2,29.92,WSW,252,0.0,-999.0,87,0.00,,,0.00,0,WeatherHawk,2015-04-19 12:20:00,
2015-04-19 05:25:00,57.0,53.2,29.92,NNE,16,1.0,-999.0,87,0.00,,,0.00,0,WeatherHawk,2015-04-19 12:25:00,
2015-04-19 05:30:00,56.8,53.0,29.92,NNW,348,1.0,-999.0,87,0.00,,,0.00,1,WeatherHawk,2015-04-19 12:30:00,
2015-04-19 05:35:00,56.7,52.8,29.92,NW,308,0.0,-999.0,87,0.00,,,0.00,0,WeatherHawk,2015-04-19 12:35:00,
2015-04-19 05:40:00,56.8,53.0,29.92,North,5,3.0,-999.0,87,0.00,,,0.00,0,WeatherHawk,2015-04-19 12:40:00,
2015-04-19 05:45:00,57.0,53.2,29.92,NW,320,1.0,-999.0,87,0.00,,,0.00,1,WeatherHawk,2015-04-19 12:45:00,
2015-04-19 05:50:00,56.8,53.0,29.92,North,5,1.0,-999.0,87,0.00,,,0.00,0,WeatherHawk,2015-04-19 12:50:00,
2015-04-19 05:55:00,57.0,53.5,29.92,NNW,342,2.0,-999.0,88,0.00,,,0.00,0,WeatherHawk,2015-04-19 12:55:00,
2015-04-19 06:00:00,57.0,53.5,29.93,NW,310,0.0,-999.0,88,0.00,,,0.00,0,WeatherHawk,2015-04-19 13:00:00,
2015-04-19 06:05:00,56.8,53.0,29.93,NNE,27,1.0,-999.0,87,0.00,,,0.00,2,WeatherHawk,2015-04-19 13:05:00,
2015-04-19 06:10:00,56.7,52.8,29.93,WNW,303,1.0,-999.0,87,0.00,,,0.00,1,WeatherHawk,2015-04-19 13:10:00,
2015-04-19 06:15:00,56.8,53.0,29.93,North,1,2.0,-999.0,87,0.00,,,0.00,3,WeatherHawk,2015-04-19 13:15:00,
2015-04-19 06:20:00,56.7,53.1,29.93,NNE,15,1.0,-999.0,88,0.00,,,0.00,5,WeatherHawk,2015-04-19 13:20:00,
2015-04-19 06:25:00,56.5,52.7,29.93,NNE,27,2.0,-999.0,87,0.00,,,0.00,7,WeatherHawk,2015-04-19 13:25:00,
2015-04-19 06:30:00,56.5,53.0,29.93,North,5,1.0,-999.0,88,0.00,,,0.00,10,WeatherHawk,2015-04-19 13:30:00,
2015-04-19 06:35:00,56.5,53.0,29.94,NW,309,0.0,-999.0,88,0.00,,,0.00,13,WeatherHawk,2015-04-19 13:35:00,
2015-04-19 06:40:00,56.3,52.5,29.94,North,359,1.0,-999.0,87,0.00,,,0.00,18,WeatherHawk,2015-04-19 13:40:00,
2015-04-19 06:45:00,56.5,53.0,29.94,NNE,12,2.0,-999.0,88,0.00,,,0.00,22,WeatherHawk,2015-04-19 13:45:00,
2015-04-19 06:50:00,56.5,53.0,29.94,North,2,1.0,-999.0,88,0.00,,,0.00,27,WeatherHawk,2015-04-19 13:50:00,
2015-04-19 06:55:00,56.5,53.0,29.94,WSW,239,0.0,-999.0,88,0.00,,,0.00,37,WeatherHawk,2015-04-19 13:55:00,
2015-04-19 07:00:00,56.7,53.1,29.94,North,3,2.0,-999.0,88,0.00,,,0.00,46,WeatherHawk,2015-04-19 14:00:00,
2015-04-19 07:05:00,56.7,52.8,29.94,SW,221,1.0,-999.0,87,0.00,,,0.00,65,WeatherHawk,2015-04-19 14:05:00,
2015-04-19 07:10:00,56.7,52.8,29.94,South,191,2.0,-999.0,87,0.00,,,0.00,62,WeatherHawk,2015-04-19 14:10:00,
2015-04-19 07:15:00,56.7,52.8,29.95,ESE,111,1.0,-999.0,87,0.00,,,0.00,73,WeatherHawk,2015-04-19 14:15:00,
2015-04-19 07:25:00,56.8,53.0,29.95,North,10,1.0,-999.0,87,0.00,,,0.00,100,WeatherHawk,2015-04-19 14:25:00,
2015-04-19 07:30:00,57.0,52.9,29.95,NNE,22,1.0,-999.0,86,0.00,,,0.00,107,WeatherHawk,2015-04-19 14:30:00,
2015-04-19 07:35:00,57.4,53.2,29.95,North,355,2.0,-999.0,86,0.00,,,0.00,106,WeatherHawk,2015-04-19 14:35:00,
2015-04-19 07:40:00,57.4,53.2,29.95,NW,304,2.0,-999.0,86,0.00,,,0.00,118,WeatherHawk,2015-04-19 14:40:00,
2015-04-19 07:45:00,57.6,53.1,29.95,NNW,327,2.0,-999.0,85,0.00,,,0.00,127,WeatherHawk,2015-04-19 14:45:00,
2015-04-19 07:50:00,57.7,53.3,29.95,SW,225,1.0,-999.0,85,0.00,,,0.00,144,WeatherHawk,2015-04-19 14:50:00,
2015-04-19 07:55:00,57.7,52.9,29.95,NW,321,0.0,-999.0,84,0.00,,,0.00,180,WeatherHawk,2015-04-19 14:55:00,
2015-04-19 08:00:00,58.3,53.5,29.95,WNW,291,1.0,-999.0,84,0.00,,,0.00,224,WeatherHawk,2015-04-19 15:00:00,
2015-04-19 08:05:00,58.5,53.3,29.95,WSW,258,2.0,-999.0,83,0.00,,,0.00,220,WeatherHawk,2015-04-19 15:05:00,
2015-04-19 08:10:00,58.8,53.3,29.95,SW,217,1.0,-999.0,82,0.00,,,0.00,224,WeatherHawk,2015-04-19 15:10:00,
2015-04-19 08:15:00,59.0,53.2,29.95,SSW,194,1.0,-999.0,81,0.00,,,0.00,375,WeatherHawk,2015-04-19 15:15:00,
2015-04-19 08:20:00,59.9,53.7,29.95,South,191,0.0,-999.0,80,0.00,,,0.00,385,WeatherHawk,2015-04-19 15:20:00,
2015-04-19 08:25:00,60.8,53.5,29.95,NW,304,1.0,-999.0,77,0.00,,,0.00,400,WeatherHawk,2015-04-19 15:25:00,
2015-04-19 08:30:00,61.2,52.8,29.95,WSW,240,2.0,-999.0,74,0.00,,,0.00,426,WeatherHawk,2015-04-19 15:30:00,
2015-04-19 08:35:00,61.5,52.8,29.95,NE,47,2.0,-999.0,73,0.00,,,0.00,436,WeatherHawk,2015-04-19 15:35:00,
2015-04-19 08:40:00,61.9,52.8,29.95,NNW,338,2.0,-999.0,72,0.00,,,0.00,462,WeatherHawk,2015-04-19 15:40:00,
2015-04-19 08:45:00,61.9,52.8,29.95,NW,321,1.0,-999.0,72,0.00,,,0.00,476,WeatherHawk,2015-04-19 15:45:00,
2015-04-19 08:50:00,62.8,52.8,29.95,NW,316,1.0,-999.0,70,0.00,,,0.00,499,WeatherHawk,2015-04-19 15:50:00,
2015-04-19 08:55:00,63.5,52.3,29.95,WNW,295,1.0,-999.0,67,0.00,,,0.00,517,WeatherHawk,2015-04-19 15:55:00,
2015-04-19 09:00:00,64.2,53.0,29.95,ENE,70,1.0,-999.0,67,0.00,,,0.00,539,WeatherHawk,2015-04-19 16:00:00,
2015-04-19 09:05:00,63.7,51.3,29.94,South,186,2.0,-999.0,64,0.00,,,0.00,554,WeatherHawk,2015-04-19 16:05:00,
2015-04-19 09:10:00,64.4,52.0,29.94,SW,225,4.0,-999.0,64,0.00,,,0.00,574,WeatherHawk,2015-04-19 16:10:00,
2015-04-19 09:15:00,64.2,51.4,29.94,SSE,151,1.0,-999.0,63,0.00,,,0.00,588,WeatherHawk,2015-04-19 16:15:00,
2015-04-19 09:20:00,64.9,51.2,29.94,SSE,168,2.0,-999.0,61,0.00,,,0.00,610,WeatherHawk,2015-04-19 16:20:00,
2015-04-19 09:25:00,64.6,50.8,29.94,SSW,206,2.0,-999.0,61,0.00,,,0.00,627,WeatherHawk,2015-04-19 16:25:00,
2015-04-19 09:30:00,64.8,51.4,29.94,SW,220,3.0,-999.0,62,0.00,,,0.00,642,WeatherHawk,2015-04-19 16:30:00,
2015-04-19 09:35:00,64.8,51.4,29.94,SW,219,0.0,-999.0,62,0.00,,,0.00,655,WeatherHawk,2015-04-19 16:35:00,
2015-04-19 09:40:00,66.2,51.4,29.94,West,266,4.0,-999.0,59,0.00,,,0.00,668,WeatherHawk,2015-04-19 16:40:00,
2015-04-19 09:45:00,67.1,50.9,29.94,NE,39,1.0,-999.0,56,0.00,,,0.00,687,WeatherHawk,2015-04-19 16:45:00,
2015-04-19 09:50:00,66.7,50.0,29.94,WNW,290,4.0,-999.0,55,0.00,,,0.00,703,WeatherHawk,2015-04-19 16:50:00,
2015-04-19 09:55:00,66.4,49.7,29.94,ESE,122,3.0,-999.0,55,0.00,,,0.00,721,WeatherHawk,2015-04-19 16:55:00,
2015-04-19 10:00:00,66.7,50.0,29.94,SE,139,3.0,-999.0,55,0.00,,,0.00,736,WeatherHawk,2015-04-19 17:00:00,
2015-04-19 10:05:00,67.3,50.1,29.94,WNW,296,2.0,-999.0,54,0.00,,,0.00,749,WeatherHawk,2015-04-19 17:05:00,
2015-04-19 10:10:00,67.8,50.1,29.94,WSW,257,6.0,-999.0,53,0.00,,,0.00,766,WeatherHawk,2015-04-19 17:10:00,
2015-04-19 10:15:00,67.6,50.4,29.94,West,261,2.0,-999.0,54,0.00,,,0.00,775,WeatherHawk,2015-04-19 17:15:00,
2015-04-19 10:20:00,68.2,50.4,29.94,SSW,196,1.0,-999.0,53,0.00,,,0.00,793,WeatherHawk,2015-04-19 17:20:00,
2015-04-19 10:25:00,67.8,49.0,29.94,West,271,3.0,-999.0,51,0.00,,,0.00,805,WeatherHawk,2015-04-19 17:25:00,
2015-04-19 10:30:00,68.2,49.9,29.94,WNW,302,6.0,-999.0,52,0.00,,,0.00,825,WeatherHawk,2015-04-19 17:30:00,
2015-04-19 10:35:00,68.2,50.9,29.93,North,359,3.0,-999.0,54,0.00,,,0.00,869,WeatherHawk,2015-04-19 17:35:00,
2015-04-19 10:40:00,68.4,51.1,29.93,SW,218,2.0,-999.0,54,0.00,,,0.00,850,WeatherHawk,2015-04-19 17:40:00,
2015-04-19 10:45:00,68.5,51.7,29.93,SW,225,7.0,-999.0,55,0.00,,,0.00,840,WeatherHawk,2015-04-19 17:45:00,
2015-04-19 10:50:00,68.2,51.9,29.93,WNW,282,4.0,-999.0,56,0.00,,,0.00,860,WeatherHawk,2015-04-19 17:50:00,
2015-04-19 10:55:00,68.7,52.4,29.93,WSW,239,3.0,-999.0,56,0.00,,,0.00,872,WeatherHawk,2015-04-19 17:55:00,
2015-04-19 11:00:00,69.1,52.2,29.93,SW,227,3.0,-999.0,55,0.00,,,0.00,908,WeatherHawk,2015-04-19 18:00:00,
2015-04-19 11:05:00,68.9,52.1,29.93,WSW,253,8.0,-999.0,55,0.00,,,0.00,887,WeatherHawk,2015-04-19 18:05:00,
2015-04-19 11:10:00,69.4,52.1,29.93,SW,235,6.0,-999.0,54,0.00,,,0.00,896,WeatherHawk,2015-04-19 18:10:00,
2015-04-19 11:15:00,69.4,52.6,29.93,SW,221,3.0,-999.0,55,0.00,,,0.00,863,WeatherHawk,2015-04-19 18:15:00,
2015-04-19 11:20:00,69.6,52.2,29.93,WSW,248,6.0,-999.0,54,0.00,,,0.00,918,WeatherHawk,2015-04-19 18:20:00,
2015-04-19 11:25:00,69.4,52.1,29.93,West,267,7.0,-999.0,54,0.00,,,0.00,917,WeatherHawk,2015-04-19 18:25:00,
2015-04-19 11:30:00,69.3,51.9,29.93,WSW,254,2.0,-999.0,54,0.00,,,0.00,934,WeatherHawk,2015-04-19 18:30:00,
2015-04-19 11:35:00,69.8,51.9,29.93,SSW,206,4.0,-999.0,53,0.00,,,0.00,952,WeatherHawk,2015-04-19 18:35:00,
2015-04-19 11:40:00,70.2,51.7,29.92,WSW,252,5.0,-999.0,52,0.00,,,0.00,954,WeatherHawk,2015-04-19 18:40:00,
2015-04-19 11:45:00,69.8,51.4,29.92,WSW,247,7.0,-999.0,52,0.00,,,0.00,962,WeatherHawk,2015-04-19 18:45:00,
2015-04-19 11:50:00,69.8,51.4,29.92,SW,229,4.0,-999.0,52,0.00,,,0.00,974,WeatherHawk,2015-04-19 18:50:00,
2015-04-19 11:55:00,70.3,51.3,29.92,WSW,257,8.0,-999.0,51,0.00,,,0.00,980,WeatherHawk,2015-04-19 18:55:00,
2015-04-19 12:00:00,70.0,49.9,29.92,SW,223,5.0,-999.0,49,0.00,,,0.00,998,WeatherHawk,2015-04-19 19:00:00,
2015-04-19 12:05:00,70.3,50.3,29.91,SW,224,2.0,-999.0,49,0.00,,,0.00,995,WeatherHawk,2015-04-19 19:05:00,
2015-04-19 12:10:00,70.3,49.1,29.91,NW,318,6.0,-999.0,47,0.00,,,0.00,995,WeatherHawk,2015-04-19 19:10:00,
2015-04-19 12:15:00,70.5,49.9,29.91,WSW,251,8.0,-999.0,48,0.00,,,0.00,1008,WeatherHawk,2015-04-19 19:15:00,
2015-04-19 12:20:00,70.2,48.4,29.91,SSW,208,4.0,-999.0,46,0.00,,,0.00,1011,WeatherHawk,2015-04-19 19:20:00,
2015-04-19 12:25:00,71.1,47.4,29.91,West,274,9.0,-999.0,43,0.00,,,0.00,1012,WeatherHawk,2015-04-19 19:25:00,
2015-04-19 12:30:00,70.9,48.5,29.90,WSW,257,4.0,-999.0,45,0.00,,,0.00,1010,WeatherHawk,2015-04-19 19:30:00,
2015-04-19 12:35:00,71.4,49.0,29.90,WSW,250,7.0,-999.0,45,0.00,,,0.00,1007,WeatherHawk,2015-04-19 19:35:00,
2015-04-19 12:40:00,70.9,49.1,29.90,NW,312,5.0,-999.0,46,0.00,,,0.00,1009,WeatherHawk,2015-04-19 19:40:00,
2015-04-19 12:45:00,70.9,49.6,29.90,WSW,252,3.0,-999.0,47,0.00,,,0.00,1009,WeatherHawk,2015-04-19 19:45:00,
2015-04-19 12:55:00,70.9,49.1,29.90,NW,321,7.0,-999.0,46,0.00,,,0.00,1020,WeatherHawk,2015-04-19 19:55:00,
2015-04-19 13:00:00,70.7,48.9,29.89,WNW,282,1.0,-999.0,46,0.00,,,0.00,1017,WeatherHawk,2015-04-19 20:00:00,
2015-04-19 13:05:00,71.2,48.8,29.89,WNW,292,6.0,-999.0,45,0.00,,,0.00,1018,WeatherHawk,2015-04-19 20:05:00,
2015-04-19 13:10:00,71.4,49.5,29.89,WSW,238,5.0,-999.0,46,0.00,,,0.00,1012,WeatherHawk,2015-04-19 20:10:00,
2015-04-19 13:15:00,72.0,49.4,29.89,West,266,2.0,-999.0,45,0.00,,,0.00,1009,WeatherHawk,2015-04-19 20:15:00,
2015-04-19 13:20:00,72.3,49.2,29.89,West,278,4.0,-999.0,44,0.00,,,0.00,1011,WeatherHawk,2015-04-19 20:20:00,
2015-04-19 13:25:00,71.4,49.5,29.89,WNW,282,8.0,-999.0,46,0.00,,,0.00,1006,WeatherHawk,2015-04-19 20:25:00,
2015-04-19 13:30:00,72.1,49.0,29.89,WSW,245,7.0,-999.0,44,0.00,,,0.00,997,WeatherHawk,2015-04-19 20:30:00,
2015-04-19 13:35:00,71.1,48.6,29.88,WSW,248,9.0,-999.0,45,0.00,,,0.00,996,WeatherHawk,2015-04-19 20:35:00,
2015-04-19 13:40:00,71.2,48.8,29.88,West,270,10.0,-999.0,45,0.00,,,0.00,987,WeatherHawk,2015-04-19 20:40:00,
2015-04-19 13:45:00,71.6,49.7,29.88,West,273,6.0,-999.0,46,0.00,,,0.00,988,WeatherHawk,2015-04-19 20:45:00,
2015-04-19 13:50:00,72.0,48.8,29.88,NNW,327,4.0,-999.0,44,0.00,,,0.00,972,WeatherHawk,2015-04-19 20:50:00,
2015-04-19 13:55:00,72.5,49.9,29.88,WSW,244,9.0,-999.0,45,0.00,,,0.00,947,WeatherHawk,2015-04-19 20:55:00,
2015-04-19 14:00:00,71.8,49.9,29.88,West,272,5.0,-999.0,46,0.00,,,0.00,936,WeatherHawk,2015-04-19 21:00:00,
2015-04-19 14:05:00,72.7,49.5,29.88,NW,316,5.0,-999.0,44,0.00,,,0.00,949,WeatherHawk,2015-04-19 21:05:00,
2015-04-19 14:10:00,71.6,49.1,29.87,NNW,334,7.0,-999.0,45,0.00,,,0.00,969,WeatherHawk,2015-04-19 21:10:00,
2015-04-19 14:15:00,71.2,48.8,29.87,WNW,302,6.0,-999.0,45,0.00,,,0.00,950,WeatherHawk,2015-04-19 21:15:00,
2015-04-19 14:20:00,71.4,48.4,29.87,West,280,3.0,-999.0,44,0.00,,,0.00,942,WeatherHawk,2015-04-19 21:20:00,
2015-04-19 14:25:00,72.0,48.8,29.87,WNW,298,7.0,-999.0,44,0.00,,,0.00,952,WeatherHawk,2015-04-19 21:25:00,
2015-04-19 14:30:00,72.1,49.6,29.87,SW,230,7.0,-999.0,45,0.00,,,0.00,877,WeatherHawk,2015-04-19 21:30:00,
2015-04-19 14:35:00,71.8,49.9,29.87,WSW,255,6.0,-999.0,46,0.00,,,0.00,842,WeatherHawk,2015-04-19 21:35:00,
2015-04-19 14:40:00,71.6,49.1,29.87,WSW,245,4.0,-999.0,45,0.00,,,0.00,828,WeatherHawk,2015-04-19 21:40:00,
2015-04-19 14:45:00,72.0,50.0,29.87,WNW,287,4.0,-999.0,46,0.00,,,0.00,809,WeatherHawk,2015-04-19 21:45:00,
2015-04-19 14:50:00,71.8,49.9,29.87,WNW,297,7.0,-999.0,46,0.00,,,0.00,786,WeatherHawk,2015-04-19 21:50:00,
2015-04-19 14:55:00,71.2,50.0,29.87,West,281,5.0,-999.0,47,0.00,,,0.00,900,WeatherHawk,2015-04-19 21:55:00,
2015-04-19 15:00:00,71.4,50.1,29.87,WSW,253,6.0,-999.0,47,0.00,,,0.00,818,WeatherHawk,2015-04-19 22:00:00,
2015-04-19 15:05:00,71.8,51.0,29.87,WNW,289,9.0,-999.0,48,0.00,,,0.00,875,WeatherHawk,2015-04-19 22:05:00,
2015-04-19 15:10:00,71.2,50.0,29.87,WSW,253,8.0,-999.0,47,0.00,,,0.00,853,WeatherHawk,2015-04-19 22:10:00,
2015-04-19 15:15:00,71.1,50.4,29.87,WSW,244,3.0,-999.0,48,0.00,,,0.00,818,WeatherHawk,2015-04-19 22:15:00,
2015-04-19 15:20:00,71.1,50.4,29.87,West,259,6.0,-999.0,48,0.00,,,0.00,811,WeatherHawk,2015-04-19 22:20:00,
2015-04-19 15:25:00,70.7,50.6,29.86,West,261,7.0,-999.0,49,0.00,,,0.00,804,WeatherHawk,2015-04-19 22:25:00,
2015-04-19 15:30:00,70.0,51.0,29.86,WSW,238,8.0,-999.0,51,0.00,,,0.00,652,WeatherHawk,2015-04-19 22:30:00,
2015-04-19 15:35:00,70.3,51.9,29.86,West,260,8.0,-999.0,52,0.00,,,0.00,760,WeatherHawk,2015-04-19 22:35:00,
2015-04-19 15:40:00,70.0,50.5,29.86,WNW,301,9.0,-999.0,50,0.00,,,0.00,763,WeatherHawk,2015-04-19 22:40:00,
2015-04-19 15:45:00,69.8,51.4,29.86,WSW,239,5.0,-999.0,52,0.00,,,0.00,693,WeatherHawk,2015-04-19 22:45:00,
2015-04-19 15:50:00,69.3,51.4,29.86,West,264,7.0,-999.0,53,0.00,,,0.00,660,WeatherHawk,2015-04-19 22:50:00,
2015-04-19 15:55:00,69.6,51.7,29.86,WNW,300,8.0,-999.0,53,0.00,,,0.00,695,WeatherHawk,2015-04-19 22:55:00,
2015-04-19 16:00:00,69.1,52.2,29.86,WSW,244,5.0,-999.0,55,0.00,,,0.00,683,WeatherHawk,2015-04-19 23:00:00,
2015-04-19 16:05:00,68.5,51.7,29.86,West,269,8.0,-999.0,55,0.00,,,0.00,584,WeatherHawk,2015-04-19 23:05:00,
2015-04-19 16:10:00,68.4,51.6,29.86,SW,225,9.0,-999.0,55,0.00,,,0.00,650,WeatherHawk,2015-04-19 23:10:00,
2015-04-19 16:15:00,68.4,51.6,29.86,West,279,3.0,-999.0,55,0.00,,,0.00,658,WeatherHawk,2015-04-19 23:15:00,
2015-04-19 16:20:00,69.1,50.7,29.86,WNW,298,8.0,-999.0,52,0.00,,,0.00,636,WeatherHawk,2015-04-19 23:20:00,
2015-04-19 16:25:00,68.7,49.9,29.86,West,267,6.0,-999.0,51,0.00,,,0.00,613,WeatherHawk,2015-04-19 23:25:00,
2015-04-19 16:30:00,68.4,50.0,29.86,West,272,7.0,-999.0,52,0.00,,,0.00,593,WeatherHawk,2015-04-19 23:30:00,
2015-04-19 16:35:00,68.5,49.7,29.86,West,259,4.0,-999.0,51,0.00,,,0.00,574,WeatherHawk,2015-04-19 23:35:00,
2015-04-19 16:40:00,68.4,49.5,29.86,West,260,5.0,-999.0,51,0.00,,,0.00,552,WeatherHawk,2015-04-19 23:40:00,
2015-04-19 16:45:00,68.4,51.1,29.86,West,261,6.0,-999.0,54,0.00,,,0.00,532,WeatherHawk,2015-04-19 23:45:00,
2015-04-19 16:50:00,68.7,50.4,29.86,West,266,3.0,-999.0,52,0.00,,,0.00,514,WeatherHawk,2015-04-19 23:50:00,
2015-04-19 16:55:00,68.9,50.0,29.86,WSW,253,7.0,-999.0,51,0.00,,,0.00,494,WeatherHawk,2015-04-19 23:55:00,
2015-04-19 17:00:00,68.7,48.2,29.86,NW,316,7.0,-999.0,48,0.00,,,0.00,475,WeatherHawk,2015-04-20 00:00:00,
2015-04-19 17:05:00,68.4,49.5,29.86,West,276,5.0,-999.0,51,0.00,,,0.00,456,WeatherHawk,2015-04-20 00:05:00,
2015-04-19 17:10:00,68.0,50.2,29.86,WSW,243,6.0,-999.0,53,0.00,,,0.00,436,WeatherHawk,2015-04-20 00:10:00,
2015-04-19 17:15:00,68.0,51.7,29.86,West,278,2.0,-999.0,56,0.00,,,0.00,414,WeatherHawk,2015-04-20 00:15:00,
2015-04-19 17:20:00,68.5,51.7,29.86,NW,307,5.0,-999.0,55,0.00,,,0.00,395,WeatherHawk,2015-04-20 00:20:00,
2015-04-19 17:25:00,68.9,51.1,29.86,WNW,297,2.0,-999.0,53,0.00,,,0.00,371,WeatherHawk,2015-04-20 00:25:00,
2015-04-19 17:30:00,68.7,51.9,29.86,West,272,6.0,-999.0,55,0.00,,,0.00,354,WeatherHawk,2015-04-20 00:30:00,
2015-04-19 17:35:00,68.7,51.4,29.86,SW,227,2.0,-999.0,54,0.00,,,0.00,337,WeatherHawk,2015-04-20 00:35:00,
2015-04-19 17:40:00,68.4,50.6,29.86,West,272,6.0,-999.0,53,0.00,,,0.00,315,WeatherHawk,2015-04-20 00:40:00,
2015-04-19 17:45:00,67.8,51.5,29.86,West,268,2.0,-999.0,56,0.00,,,0.00,298,WeatherHawk,2015-04-20 00:45:00,
2015-04-19 17:50:00,67.8,51.5,29.86,WNW,283,5.0,-999.0,56,0.00,,,0.00,281,WeatherHawk,2015-04-20 00:50:00,
2015-04-19 17:55:00,67.5,50.7,29.86,WNW,292,5.0,-999.0,55,0.00,,,0.00,258,WeatherHawk,2015-04-20 00:55:00,
2015-04-19 18:00:00,67.6,51.9,29.86,SW,214,4.0,-999.0,57,0.00,,,0.00,241,WeatherHawk,2015-04-20 01:00:00,
2015-04-19 18:05:00,67.3,51.5,29.87,WNW,291,5.0,-999.0,57,0.00,,,0.00,219,WeatherHawk,2015-04-20 01:05:00,
2015-04-19 18:10:00,67.5,51.2,29.87,SW,232,5.0,-999.0,56,0.00,,,0.00,204,WeatherHawk,2015-04-20 01:10:00,
2015-04-19 18:15:00,67.3,51.0,29.87,WSW,246,6.0,-999.0,56,0.00,,,0.00,185,WeatherHawk,2015-04-20 01:15:00,
2015-04-19 18:20:00,67.1,51.8,29.87,West,266,4.0,-999.0,58,0.00,,,0.00,169,WeatherHawk,2015-04-20 01:20:00,
2015-04-19 18:25:00,66.7,51.5,29.87,WSW,237,8.0,-999.0,58,0.00,,,0.00,150,WeatherHawk,2015-04-20 01:25:00,